CSOVD LPCS-LPCS

Flight info

Callsign CSOVD
Flight time 0h 39m
Altitude 1500
Route CCAIS DCT CRASO DCT CROCA DCT ERICE LPSC DCT ERICE DCT CROCA DCT CRASO DCT CCAIS DCT LPCS
Aircraft M7/L-VGD/C

Departure

Time 2026-04-12 08:52
Airport Cascais Airport (LPCS)

Arrival

Time 2026-04-12 09:31
Airport Cascais Airport (LPCS)
Time Latitude Longitude Altitude Speed Heading
2026-04-12 08:36 38.72196 -9.35780 298 ft 0 kts 360°
2026-04-12 08:47 38.72210 -9.35780 301 ft 7 kts 359°
2026-04-12 08:47 38.72239 -9.35766 301 ft 4 kts 36°
2026-04-12 08:47 38.72266 -9.35748 299 ft 6 kts 356°
2026-04-12 08:47 38.72282 -9.35745 299 ft 3 kts 15°
2026-04-12 08:48 38.72314 -9.35669 303 ft 14 kts 76°
2026-04-12 08:48 38.72340 -9.35554 306 ft 13 kts 76°
2026-04-12 08:48 38.72348 -9.35520 308 ft 0 kts 73°
2026-04-12 08:50 38.72355 -9.35494 309 ft 2 kts 69°
2026-04-12 08:50 38.72369 -9.35471 310 ft 0 kts 351°
2026-04-12 08:50 38.72390 -9.35478 310 ft 0 kts 344°
2026-04-12 08:50 38.72497 -9.35520 332 ft 34 kts 342°
2026-04-12 08:51 38.72810 -9.35624 465 ft 57 kts 345°
2026-04-12 08:51 38.73202 -9.35744 712 ft 57 kts 349°
2026-04-12 08:51 38.73603 -9.35933 782 ft 70 kts 318°
2026-04-12 08:51 38.73703 -9.36628 852 ft 90 kts 283°
2026-04-12 08:52 38.73499 -9.37470 903 ft 100 kts 266°
2026-04-12 08:52 38.73299 -9.38285 1093 ft 101 kts 275°
2026-04-12 08:52 38.73006 -9.39190 1209 ft 112 kts 263°
2026-04-12 08:52 38.72783 -9.40138 1194 ft 112 kts 271°
2026-04-12 08:53 38.72608 -9.41111 1115 ft 114 kts 271°
2026-04-12 08:53 38.72403 -9.42072 1056 ft 110 kts 273°
2026-04-12 08:53 38.72261 -9.42995 1068 ft 102 kts 281°
2026-04-12 08:53 38.72198 -9.43887 1041 ft 99 kts 281°
2026-04-12 08:54 38.72098 -9.44746 1119 ft 103 kts 273°
2026-04-12 08:54 38.71999 -9.45658 1131 ft 105 kts 280°
2026-04-12 08:54 38.71949 -9.46611 1154 ft 107 kts 282°
2026-04-12 08:54 38.72097 -9.47443 1270 ft 86 kts 320°
2026-04-12 08:55 38.72659 -9.47731 1066 ft 86 kts 343°
2026-04-12 08:55 38.73189 -9.48004 1026 ft 78 kts 342°
2026-04-12 08:55 38.73700 -9.48195 1023 ft 73 kts 345°
2026-04-12 08:55 38.74196 -9.48381 995 ft 75 kts 345°
2026-04-12 08:56 38.74695 -9.48590 1013 ft 74 kts 342°
2026-04-12 08:56 38.75156 -9.48861 1084 ft 69 kts 341°
2026-04-12 08:56 38.75626 -9.49097 1069 ft 72 kts 342°
2026-04-12 08:56 38.76105 -9.49311 1042 ft 75 kts 341°
2026-04-12 08:57 38.76586 -9.49540 1057 ft 72 kts 340°
2026-04-12 08:57 38.77070 -9.49754 1017 ft 75 kts 343°
2026-04-12 08:57 38.77564 -9.49907 1042 ft 73 kts 355°
2026-04-12 08:57 38.78060 -9.49718 914 ft 79 kts 17°
2026-04-12 08:58 38.78551 -9.49484 1073 ft 74 kts 11°
2026-04-12 08:58 38.79040 -9.49323 1378 ft 74 kts
2026-04-12 08:58 38.79562 -9.49109 1514 ft 85 kts 17°
2026-04-12 08:58 38.80113 -9.48740 1579 ft 89 kts 20°
2026-04-12 08:59 38.80684 -9.48404 1642 ft 89 kts 14°
2026-04-12 08:59 38.81281 -9.48078 1557 ft 100 kts 16°
2026-04-12 08:59 38.81885 -9.47706 1595 ft 91 kts 18°
2026-04-12 08:59 38.82446 -9.47351 1583 ft 91 kts 18°
2026-04-12 09:00 38.83015 -9.46979 1582 ft 91 kts 18°
2026-04-12 09:00 38.83586 -9.46615 1584 ft 93 kts 18°
2026-04-12 09:00 38.84165 -9.46244 1587 ft 94 kts 14°
2026-04-12 09:00 38.84778 -9.45985 1568 ft 94 kts 13°
2026-04-12 09:01 38.85397 -9.45691 1545 ft 95 kts 14°
2026-04-12 09:01 38.85810 -9.45516 1569 ft 92 kts 13°
2026-04-12 09:01 38.86624 -9.45138 1457 ft 97 kts 14°
2026-04-12 09:01 38.87061 -9.44949 1426 ft 97 kts 12°
2026-04-12 09:02 38.87887 -9.44588 1416 ft 93 kts 11°
2026-04-12 09:02 38.88475 -9.44316 1475 ft 88 kts 11°
2026-04-12 09:02 38.89073 -9.44035 1407 ft 92 kts 13°
2026-04-12 09:02 38.89472 -9.43834 1403 ft 92 kts 14°
2026-04-12 09:03 38.90289 -9.43514 1349 ft 96 kts
2026-04-12 09:03 38.90928 -9.43272 1342 ft 94 kts 10°
2026-04-12 09:03 38.91355 -9.43116 1294 ft 96 kts 12°
2026-04-12 09:03 38.91979 -9.42901 1361 ft 91 kts
2026-04-12 09:04 38.92601 -9.42772 1416 ft 88 kts
2026-04-12 09:04 38.93192 -9.42672 1500 ft 85 kts
2026-04-12 09:04 38.93781 -9.42577 1533 ft 85 kts
2026-04-12 09:04 38.94382 -9.42543 1544 ft 86 kts 358°
2026-04-12 09:05 38.94980 -9.42518 1548 ft 87 kts 358°
2026-04-12 09:05 38.95588 -9.42476 1515 ft 88 kts 360°
2026-04-12 09:05 38.96208 -9.42445 1464 ft 90 kts 358°
2026-04-12 09:05 38.96824 -9.42440 1492 ft 85 kts 358°
2026-04-12 09:06 38.97419 -9.42420 1522 ft 86 kts
2026-04-12 09:06 38.98022 -9.42385 1544 ft 87 kts
2026-04-12 09:06 38.98620 -9.42326 1590 ft 86 kts
2026-04-12 09:06 38.99227 -9.42240 1558 ft 89 kts
2026-04-12 09:07 38.99852 -9.42149 1511 ft 92 kts
2026-04-12 09:07 39.00450 -9.41858 1509 ft 91 kts 17°
2026-04-12 09:07 39.01025 -9.41505 1555 ft 94 kts 18°
2026-04-12 09:07 39.01601 -9.41113 1560 ft 96 kts 20°
2026-04-12 09:08 39.02194 -9.40703 1473 ft 95 kts 15°
2026-04-12 09:08 39.02772 -9.40297 1423 ft 96 kts 23°
2026-04-12 09:08 39.03340 -9.39832 1399 ft 97 kts 22°
2026-04-12 09:08 39.03915 -9.39399 1414 ft 94 kts 26°
2026-04-12 09:09 39.04448 -9.38882 1379 ft 97 kts 30°
2026-04-12 09:09 39.04905 -9.38338 1564 ft 82 kts 24°
2026-04-12 09:09 39.05433 -9.38021 1525 ft 81 kts
2026-04-12 09:09 39.05884 -9.37670 1472 ft 77 kts 29°
2026-04-12 09:10 39.06262 -9.37192 1453 ft 79 kts 31°
2026-04-12 09:10 39.06673 -9.36714 1352 ft 81 kts 20°
2026-04-12 09:10 39.07213 -9.36670 1162 ft 77 kts 347°
2026-04-12 09:10 39.07696 -9.36754 1105 ft 66 kts 351°
2026-04-12 09:11 39.08113 -9.36812 1073 ft 54 kts 352°
2026-04-12 09:11 39.08501 -9.36839 1029 ft 62 kts 351°
2026-04-12 09:11 39.08955 -9.36951 948 ft 68 kts 347°
2026-04-12 09:11 39.09396 -9.37117 921 ft 64 kts 342°
2026-04-12 09:12 39.09788 -9.37335 832 ft 62 kts 336°
2026-04-12 09:12 39.10123 -9.37439 720 ft 43 kts 351°
2026-04-12 09:12 39.10411 -9.37459 625 ft 40 kts 353°
2026-04-12 09:12 39.10679 -9.37530 526 ft 40 kts 343°
2026-04-12 09:13 39.10944 -9.37620 479 ft 37 kts 343°
2026-04-12 09:13 39.11186 -9.37661 411 ft 35 kts 345°
2026-04-12 09:13 39.11442 -9.37739 359 ft 37 kts 351°
2026-04-12 09:13 39.11674 -9.37795 301 ft 36 kts 345°
2026-04-12 09:14 39.11935 -9.37872 246 ft 38 kts 344°
2026-04-12 09:14 39.12168 -9.37943 191 ft 35 kts 345°
2026-04-12 09:14 39.12386 -9.38008 160 ft 26 kts 343°
2026-04-12 09:14 39.12650 -9.38054 297 ft 42 kts 349°
2026-04-12 09:15 39.12965 -9.38213 430 ft 67 kts 316°
2026-04-12 09:15 39.12708 -9.38876 720 ft 110 kts 220°
2026-04-12 09:15 39.11943 -9.39159 1058 ft 116 kts 211°
2026-04-12 09:15 39.11208 -9.39589 1237 ft 123 kts 212°
2026-04-12 09:16 39.10391 -9.40070 1307 ft 132 kts 217°
2026-04-12 09:16 39.09569 -9.40578 1541 ft 136 kts 211°
2026-04-12 09:16 39.08674 -9.41020 1649 ft 140 kts 205°
2026-04-12 09:16 39.07667 -9.41207 1633 ft 149 kts 186°
2026-04-12 09:17 39.06613 -9.41277 1542 ft 154 kts 186°
2026-04-12 09:17 39.05565 -9.41362 1569 ft 146 kts 191°
2026-04-12 09:17 39.04557 -9.41508 1598 ft 146 kts 189°
2026-04-12 09:17 39.03579 -9.41589 1770 ft 144 kts 189°
2026-04-12 09:18 39.02609 -9.41693 1864 ft 144 kts 188°
2026-04-12 09:18 39.01589 -9.41765 1804 ft 147 kts 187°
2026-04-12 09:18 39.00540 -9.41814 1553 ft 149 kts 184°
2026-04-12 09:18 38.99539 -9.41879 1497 ft 143 kts 186°
2026-04-12 09:19 38.98552 -9.41960 1483 ft 142 kts 191°
2026-04-12 09:19 38.97559 -9.42102 1568 ft 143 kts 187°
2026-04-12 09:19 38.96560 -9.42149 1615 ft 146 kts 184°
2026-04-12 09:20 38.94559 -9.42367 1684 ft 150 kts 188°
2026-04-12 09:20 38.93503 -9.42629 1514 ft 156 kts 199°
2026-04-12 09:20 38.91471 -9.43369 1486 ft 150 kts 201°
2026-04-12 09:21 38.90479 -9.43773 1443 ft 152 kts 202°
2026-04-12 09:21 38.89466 -9.44114 1420 ft 149 kts 197°
2026-04-12 09:21 38.88461 -9.44425 1387 ft 147 kts 201°
2026-04-12 09:21 38.87485 -9.44823 1350 ft 149 kts 206°
2026-04-12 09:22 38.86496 -9.45229 1334 ft 147 kts 206°
2026-04-12 09:22 38.85546 -9.45687 1383 ft 144 kts 207°
2026-04-12 09:22 38.84618 -9.46163 1471 ft 141 kts 208°
2026-04-12 09:22 38.83685 -9.46615 1535 ft 146 kts 207°
2026-04-12 09:23 38.82759 -9.47116 1668 ft 142 kts 211°
2026-04-12 09:23 38.81829 -9.47550 1763 ft 144 kts 208°
2026-04-12 09:23 38.80917 -9.48031 1882 ft 146 kts 208°
2026-04-12 09:23 38.79945 -9.48380 1949 ft 149 kts 197°
2026-04-12 09:24 38.78933 -9.48636 1881 ft 140 kts 197°
2026-04-12 09:24 38.78008 -9.48823 1495 ft 136 kts 189°
2026-04-12 09:24 38.77071 -9.48835 1380 ft 137 kts 171°
2026-04-12 09:24 38.76153 -9.48684 1223 ft 129 kts 174°
2026-04-12 09:25 38.75273 -9.48621 1161 ft 126 kts 174°
2026-04-12 09:25 38.74369 -9.48534 1174 ft 134 kts 175°
2026-04-12 09:25 38.73439 -9.48425 1282 ft 133 kts 176°
2026-04-12 09:25 38.72514 -9.48325 1382 ft 139 kts 175°
2026-04-12 09:26 38.71534 -9.48214 1434 ft 145 kts 171°
2026-04-12 09:26 38.70559 -9.47810 1421 ft 150 kts 150°
2026-04-12 09:26 38.69839 -9.46966 1450 ft 137 kts 111°
2026-04-12 09:26 38.69344 -9.45974 1595 ft 130 kts 109°
2026-04-12 09:27 38.68980 -9.44939 1620 ft 124 kts 90°
2026-04-12 09:27 38.68759 -9.43871 1613 ft 127 kts 91°
2026-04-12 09:27 38.68505 -9.42746 1457 ft 135 kts 95°
2026-04-12 09:27 38.68219 -9.41622 1461 ft 128 kts 96°
2026-04-12 09:28 38.67879 -9.40573 1458 ft 127 kts 100°
2026-04-12 09:28 38.67515 -9.39550 1469 ft 122 kts 101°
2026-04-12 09:28 38.67215 -9.38539 1298 ft 114 kts 94°
2026-04-12 09:28 38.66961 -9.37606 1241 ft 106 kts 96°
2026-04-12 09:29 38.66696 -9.36719 1154 ft 106 kts 93°
2026-04-12 09:29 38.66477 -9.35842 1117 ft 97 kts 79°
2026-04-12 09:29 38.66507 -9.35057 1073 ft 85 kts 54°
2026-04-12 09:29 38.66836 -9.34526 1007 ft 74 kts 22°
2026-04-12 09:30 38.67269 -9.34223 1005 ft 67 kts 12°
2026-04-12 09:30 38.67677 -9.34097 1069 ft 57 kts
2026-04-12 09:30 38.68073 -9.34037 1033 ft 59 kts 355°
2026-04-12 09:30 38.68493 -9.34090 965 ft 64 kts 347°
2026-04-12 09:31 38.68891 -9.34213 869 ft 52 kts 345°
2026-04-12 09:31 38.69231 -9.34334 780 ft 53 kts 343°
2026-04-12 09:31 38.69596 -9.34480 599 ft 56 kts 343°
2026-04-12 09:31 38.69902 -9.34560 406 ft 40 kts 338°
2026-04-12 09:32 38.70149 -9.34688 441 ft 42 kts 337°
2026-04-12 09:32 38.70454 -9.34778 433 ft 45 kts 349°
2026-04-12 09:32 38.70704 -9.34920 479 ft 46 kts 353°
2026-04-12 09:32 38.71017 -9.34980 474 ft 48 kts 347°
2026-04-12 09:33 38.71351 -9.35092 423 ft 47 kts 341°
2026-04-12 09:33 38.71645 -9.35205 344 ft 43 kts 342°
2026-04-12 09:33 38.71887 -9.35297 333 ft 33 kts 344°
2026-04-12 09:33 38.72121 -9.35376 308 ft 32 kts 339°
2026-04-12 09:34 38.72224 -9.35419 305 ft 1 kts 342°
2026-04-12 09:34 38.72291 -9.35445 308 ft 7 kts 333°
2026-04-12 09:34 38.72320 -9.35459 309 ft 11 kts 340°
2026-04-12 09:34 38.72348 -9.35516 308 ft 8 kts 252°
2026-04-12 09:35 38.72336 -9.35558 306 ft 0 kts 249°
2026-04-12 09:36 38.72330 -9.35579 305 ft 7 kts 249°
2026-04-12 09:36 38.72310 -9.35668 304 ft 13 kts 255°
2026-04-12 09:36 38.72282 -9.35747 300 ft 9 kts 189°
2026-04-12 09:36 38.72226 -9.35744 300 ft 10 kts 223°
2026-04-12 09:37 38.72223 -9.35777 298 ft 0 kts 31°